www.pogodaiklimat.ru
ПОГОДА в Форт Мид
Время
и дата
04:38 01.12
04:58 01.12
05:18 01.12
05:38 01.12
05:57 01.12
06:18 01.12
06:37 01.12
06:58 01.12
07:18 01.12
07:39 01.12
07:59 01.12
08:18 01.12
08:38 01.12
08:57 01.12
09:19 01.12
09:38 01.12
09:58 01.12
10:18 01.12
10:39 01.12
10:57 01.12
11:17 01.12
11:38 01.12
11:57 01.12
12:18 01.12
12:39 01.12
12:59 01.12
13:19 01.12
13:39 01.12
13:58 01.12
14:19 01.12
14:39 01.12
14:59 01.12
15:19 01.12
15:38 01.12
15:59 01.12
16:19 01.12
16:38 01.12
16:59 01.12
17:19 01.12
17:38 01.12
17:57 01.12
18:18 01.12
18:39 01.12
18:59 01.12
19:18 01.12
19:37 01.12
19:58 01.12
20:18 01.12
Ветер
(напр.,м/с)
Видим. Явления Облачность Т
(С)
Тd
(С)
f
(%)
Тe
(С)
Тes
(С)
Комфортность P
(гПа)
Po
(гПа)
Тmin
(С)
Tmax
(С)
R
(мм)
R24
(мм)
S
(см)
З 7
{11}
16 км ясно +1.0 -10.0 44 -5 -5 1018.0
З 5
{8}
16 км ясно +1.0 -10.0 44 -4 -4 1018.7
СЗ 4
{10}
16 км ясно +1.0 -10.0 44 -3 -3 1018.7
СЗ 3
{7}
16 км ясно +1.0 -10.0 44 -3 -3 1019.7
З 3 16 км 5/5 1650 м +1.0 -9.0 47 -3 -3 1020.0
З 5 16 км 5/5 1650 м 0.0 -8.0 55 -5 -5 1020.4
З 4 16 км ясно +1.0 -9.0 47 -3 -3 1021.0
СЗ 2 16 км ясно 0.0 -8.0 55 -3 -3 1021.7
ЮЗ 2 16 км ясно -1.0 -8.0 59 -4 -4 1022.1
З 2 16 км 5/5 1500 м -1.0 -6.0 69 -4 -4 1022.4
З 3 16 км ясно -1.0 -6.0 69 -6 -6 1022.7
ЮЗ 2 16 км ясно 0.0 -6.0 64 -3 -3 1023.4
З 4 16 км ясно +1.0 -7.0 55 -4 -3 1023.7
СЗ 5
{8}
16 км ясно +2.0 -9.0 44 -3 -3 1024.1
СЗ 6
{11}
16 км ясно +2.0 -10.0 41 -3 -3 1024.4
З 7
{11}
16 км ясно +2.0 -10.0 41 -4 -3 1024.4
З 4
{8}
16 км ясно +3.0 -10.0 38 -1 0 1024.7
З 5
{10}
16 км ясно +3.0 -10.0 38 -1 0 1025.1
З 5 16 км ясно +3.0 -10.0 38 -1 0 1025.1
З 5
{8}
16 км ясно +3.0 -10.0 38 -1 0 1025.4
З 6 16 км ясно +3.0 -10.0 38 -2 0 1025.1
СЗ 4
{8}
16 км ясно +4.0 -10.0 35 +1 +4 1025.4
З 4
{8}
16 км ясно +5.0 -10.0 33 +2 +5 1025.4
З 5 16 км ясно +5.0 -10.0 33 +1 +4 1025.4
З 5
{9}
16 км ясно +5.0 -11.0 30 +1 +4 1025.8
СЗ 4
{9}
16 км ясно +5.0 -11.0 30 +2 +5 1025.8
З 6
{8}
16 км ясно +6.0 -11.0 28 +2 +4 1025.4
З 4
{7}
16 км ясно +6.0 -11.0 28 +3 +6 1025.4
З 5
{8}
16 км ясно +6.0 -11.0 28 +3 +5 1025.1
З 3
{8}
16 км ясно +6.0 -11.0 28 +4 +7 1025.4
З 6
{7}
16 км ясно +6.0 -11.0 28 +2 +4 1025.4
З 6
{8}
16 км ясно +6.0 -11.0 28 +2 +4 1025.4
З 5 16 км ясно +5.0 -11.0 30 +1 +2 1025.8
З 4
{7}
16 км ясно +5.0 -11.0 30 +2 +3 1026.1
З 5 16 км ясно +5.0 -11.0 30 +1 +2 1026.4
З 2 16 км ясно +4.0 -11.0 33 +2 +3 1026.8
З 2 16 км ясно +3.0 -9.0 41 +1 +1 1026.8
СЗ 2 16 км ясно +2.0 -10.0 41 0 0 1027.1
СЗ 2 16 км ясно +2.0 -10.0 41 0 0 1027.1
СЗ 2 16 км ясно +2.0 -10.0 41 0 0 1026.8
штиль 0 16 км ясно +2.0 -8.0 47 +2 +2 1026.8
штиль 0 16 км ясно +1.0 -7.0 55 +1 +1 1026.8
штиль 0 16 км ясно +1.0 -7.0 55 +1 +1 1026.8
штиль 0 16 км ясно 0.0 -6.0 64 -1 -1 1027.1
штиль 0 16 км ясно 0.0 -5.0 69 -1 -1 1027.4
штиль 0 16 км ясно 0.0 -4.0 74 -1 -1 1027.4
штиль 0 16 км ясно 0.0 -5.0 69 -1 -1 1027.8
штиль 0 16 км ясно 0.0 -5.0 69 -1 -1 1027.8
Местоположение метеостанции Tipton Airport: широта 39.0833 долгота -76.7667 высота над уровнем моря 46 м.
В архиве по умолчанию представлена погода в Форт Мид за последние 1-2 суток. Обновление информации о фактической погоде в базе происходит ежечасно! Архивные данные за месяц целиком и за предыдущие месяцы Вы можете получить, выбрав интересующий диапазон дат из раскрывающегося списка и нажав кнопку "Ввод!".
Внимание! Архив погоды МЕТАР в базе сайта по станциям, не включенным в климатический монитор, хранится не более 60 дней. Нет смысла пытаться выбрать более раннюю дату.
*Определитесь, кто Вы:
Внимание! Время в таблицах - местное (без учета летнего времени). Для получения всемирного времени необходимо вычесть поправку, которая равна -5 ч.
Смотрите также архив погоды в соседних городах и на ближайших метеорологических станциях:
Партнеры нашего сайта:      
Пояснения к столбцам:
  • Ветер - указаны скорость ветра в м/с - средняя за 10 мин, порывы в срок и между сроками (в фигурных скобках) и направление, откуда дует ветер: С - северный,
  • СВ - северо-восточный, В - восточный, ЮВ - юго-восточный, Ю - южный, ЮЗ - юго-западный, З - западный, СЗ - северо-западный.
  • Видимость - горизонтальная дальность видимости в метрах или километрах. При видимости от 1 до 10 км при отсутствии осадков обычно наблюдается дымка, при ухудшении видимости до 1 км и менее - туман. В сухую погоду видимость может ухудшаться дымом, пылью или мглою.
  • Явления - указаны атмосферные явления, наблюдавшиеся в срок или в последний час перед сроком; фигурными скобками обозначены явления, наблюдавшиеся между сроками (за 1-3 часа до срока); квадратными скобками обозначены град или гололедные отложения с указанием их диаметра в мм.
  • Облачность - указаны через наклонную черту общая и нижняя облачность в баллах и высота нижней границы облаков в метрах; квадратными скобками обозначены формы облаков: Ci - перистые, Cs - перисто-слоистые, Cc - перисто-кучевые, Ac - высококучевые, As - высокослоистые, Sc - слоисто-кучевые, Ns - слоисто-дождевые, Cu - кучевые, Cb - кучево-дождевые. Подробнее классификацию облаков см. в Атласе облаков (PDF).
  • T - Температура воздуха - температура, измеренная на высоте 2 м над землей.
  • Td - Температура точки росы - температура, при понижении до которой содержащийся в воздухе водяной пар достигнет насыщения.
  • f - Относительная влажность воздуха - влажноcть воздуха, измеренная на высоте 2 м над землей.
  • Te - Эффективная температура - температура, которую ощущает одетый по сезону человек в тени. Характеристика душности погоды. При расчете учитывается влияние влажности воздуха и скорости ветра на теплоощущения человека.
  • Tes - Эффективная температура на солнце - температура, которую ощущает человек, с поправкой на солнечный нагрев. Характеристика знойности погоды. Зависит от высоты солнца над горизонтом, облачности и скорости ветра. Ночью, в пасмурную погоду, а также при ветре 12 м/с и более поправка равна нулю.
  • P - Атмосферное давление - приведенное к уровню моря атмосферное давление.
  • Po - Атмосферное давление - измеренное на уровне метеостанции атмосферное давление.
  • Tmin - Минимальная температура - минимум температуры воздуха на высоте 2 м над землей.
  • Tmax - Максимальная температура - максимум температуры воздуха на высоте 2 м над землей.
  • R - Количество осадков - Количество выпавших осадков за период времени, мм. При наведении курсора мыши на число - период времени, за который выпало указанное количество осадков.
  • R24 - Количество осадков - Количество выпавших осадков за 24 часа, мм.
  • S - Снежный покров - Высота снежного покрова, см. При наведении курсора мыши на число - состояние снежного покрова и степень покрытия местности в баллах.